DW9498 Weather Reports


Display with metric or nautical units.
time (UTC)temp
F
wind
direction
speed
MPH
gust
MPH
rain 1hr
in
rain 24hr
in
rain mn
in
humidity
%
barometer
mb
20260901042329 78 147 0.0 0.0 0.00 0.00 0.00 81 1013.4
20260901041325 78 147 0.0 0.0 0.00 0.00 0.00 80 1013.5
20260901040333 78 146 0.0 0.0 0.00 0.00 0.00 79 1013.7
20260901035342 78 146 0.0 0.0 0.00 0.00 0.00 79 1013.5
20260901034328 78 147 0.0 0.0 0.00 0.00 0.00 79 1013.4
20260901033339 79 147 0.0 0.0 0.00 0.00 0.00 78 1013.4
20260901032326 79 147 0.0 0.0 0.00 0.00 0.00 78 1013.3
20260901031335 79 146 0.0 0.0 0.00 0.00 0.00 78 1013.3
20260901030329 79 147 0.0 0.0 0.00 0.00 0.00 77 1013.2
20260901025344 79 147 0.0 0.0 0.00 0.00 0.00 77 1013.2
20260901024341 80 146 0.0 0.0 0.00 0.00 0.00 77 1013.0
20260901023332 80 146 0.0 0.0 0.00 0.00 0.00 77 1013.0
20260901022355 81 146 0.0 0.0 0.00 0.00 0.00 76 1012.9
20260901021339 81 146 0.0 0.0 0.00 0.00 0.00 75 1012.8
20260901020347 81 146 0.0 0.0 0.00 0.00 0.00 74 1012.7
20260901015338 81 146 0.0 0.0 0.00 0.00 0.00 74 1012.5
20260901014351 82 146 0.0 0.0 0.00 0.00 0.00 73 1012.5
20260901013334 83 146 0.0 0.0 0.00 0.00 0.00 72 1012.4
20260901012323 83 146 0.0 0.0 0.00 0.00 0.00 71 1012.4
20260901011330 84 146 0.0 0.0 0.00 0.00 0.00 71 1012.4
20260901010344 84 146 0.0 0.0 0.00 0.00 0.00 71 1012.6
20260901005328 85 146 0.0 0.0 0.00 0.00 0.00 70 1012.5
20260901004404 85 146 0.0 0.0 0.00 0.00 0.00 69 1012.6
20260901003336 86 146 0.0 0.0 0.00 0.00 0.00 69 1012.7
20260901002323 86 146 0.0 0.0 0.00 0.00 0.00 66 1012.7
20260901001349 88 146 0.0 0.0 0.00 0.00 0.00 65 1012.7
20260901000336 88 146 0.0 0.0 0.00 0.00 0.00 62 1012.7
20260831235331 89 146 0.0 1.0 0.00 0.00 0.00 61 1012.7
20260831234333 89 147 0.0 0.0 0.00 0.00 0.00 59 1012.7
20260831233345 89 148 0.0 2.0 0.00 0.00 0.00 59 1012.7
20260831232330 89 154 0.0 0.0 0.00 0.00 0.00 59 1012.8
20260831231330 89 211 0.0 0.0 0.00 0.00 0.00 60 1012.7
20260831230337 90 167 0.0 4.0 0.00 0.00 0.00 60 1012.8
20260831225329 91 174 1.0 3.0 0.00 0.00 0.00 57 1012.8
20260831224335 91 163 0.0 4.0 0.00 0.00 0.00 57 1012.7
20260831223348 92 216 2.0 4.0 0.00 0.00 0.00 56 1012.8
20260831222329 91 137 0.0 3.0 0.00 0.00 0.00 56 1012.8
20260831221351 90 179 0.0 3.0 0.00 0.00 0.00 58 1012.8
20260831220331 90 144 0.0 2.0 0.00 0.00 0.00 60 1012.8
20260831215339 90 242 0.0 1.0 0.00 0.00 0.00 60 1012.8
20260831214326 91 146 0.0 3.0 0.00 0.00 0.00 58 1012.8
20260831213335 91 142 0.0 4.0 0.00 0.00 0.00 58 1013.0
20260831212324 90 183 1.0 4.0 0.00 0.00 0.00 58 1013.0
20260831211348 90 156 1.0 4.0 0.00 0.00 0.00 57 1013.0
20260831210330 90 135 0.0 4.0 0.00 0.00 0.00 59 1013.1
20260831205344 89 159 1.0 5.0 0.00 0.00 0.00 60 1013.1
20260831204327 89 152 2.0 6.0 0.00 0.00 0.00 61 1013.1
20260831203337 90 117 3.0 6.0 0.00 0.00 0.00 61 1013.2
20260831202326 90 166 3.0 6.0 0.00 0.00 0.00 62 1013.2
20260831201333 89 166 4.0 9.0 0.00 0.00 0.00 61 1013.4
20260831200324 89 129 4.0 7.0 0.00 0.00 0.00 62 1013.4
20260831195340 89 257 2.0 8.0 0.00 0.00 0.00 63 1013.3
20260831194326 90 229 1.0 5.0 0.00 0.00 0.00 64 1013.3
20260831193330 89 165 2.0 6.0 0.00 0.00 0.00 62 1013.4
20260831192339 90 192 1.0 3.0 0.00 0.00 0.00 58 1013.3
20260831191342 90 248 0.0 3.0 0.00 0.00 0.00 58 1013.2
20260831190325 90 158 1.0 3.0 0.00 0.00 0.00 57 1013.2
20260831185336 90 142 1.0 3.0 0.00 0.00 0.00 58 1013.2
20260831184339 90 334 0.0 3.0 0.00 0.00 0.00 59 1013.3
20260831183349 90 138 2.0 4.0 0.00 0.00 0.00 58 1013.2
20260831182334 90 147 1.0 4.0 0.00 0.00 0.00 60 1013.1
20260831181337 90 12 2.0 3.0 0.00 0.00 0.00 60 1013.1
20260831180347 89 213 1.0 3.0 0.00 0.00 0.00 61 1013.2
20260831175333 88 261 0.0 3.0 0.00 0.00 0.00 63 1013.2
20260831174404 88 330 1.0 2.0 0.00 0.00 0.00 64 1013.2
20260831173358 86 317 0.0 2.0 0.00 0.00 0.00 64 1013.3
20260831172402 85 158 0.0 1.0 0.00 0.00 0.00 68 1013.3
20260831171326 85 292 1.0 3.0 0.00 0.00 0.00 66 1013.2
20260831170333 85 155 0.0 1.0 0.00 0.00 0.00 68 1013.1
20260831165326 84 116 0.0 2.0 0.00 0.00 0.00 69 1013.0
20260831164329 83 167 0.0 4.0 0.00 0.00 0.00 70 1013.0
20260831163339 83 218 0.0 2.0 0.00 0.00 0.00 70 1012.9
20260831162326 83 355 0.0 3.0 0.00 0.00 0.00 71 1012.8
20260831161400 82 164 1.0 4.0 0.00 0.00 0.00 70 1012.8
20260831160344 82 171 1.0 4.0 0.00 0.00 0.00 71 1012.6
20260831155330 81 262 0.0 0.0 0.00 0.00 0.00 73 1012.4
20260831154337 80 353 0.0 3.0 0.00 0.00 0.00 74 1012.1
20260831153348 81 154 0.0 0.0 0.00 0.00 0.00 74 1012.1
20260831152334 80 307 0.0 2.0 0.00 0.00 0.00 75 1012.3
20260831151325 79 158 0.0 2.0 0.00 0.00 0.00 76 1012.2
20260831150338 79 128 0.0 2.0 0.00 0.00 0.00 76 1012.1
20260831145323 79 356 0.0 1.0 0.00 0.00 0.00 76 1012.3
20260831144329 79 155 0.0 1.0 0.00 0.00 0.00 77 1011.9
20260831143334 78 155 0.0 1.0 0.00 0.00 0.00 78 1011.9
20260831142340 78 156 0.0 0.0 0.00 0.00 0.00 79 1011.8
20260831141325 77 156 0.0 0.0 0.00 0.00 0.00 79 1012.1
20260831140334 77 149 0.0 2.0 0.00 0.00 0.00 79 1012.1
20260831135338 77 148 0.0 0.0 0.00 0.00 0.00 79 1011.9
20260831134342 77 328 0.0 4.0 0.00 0.00 0.00 79 1011.5
20260831133331 77 214 0.0 4.0 0.00 0.00 0.00 79 1011.9
20260831132340 77 230 0.0 2.0 0.00 0.00 0.00 80 1012.1
20260831131326 77 107 0.0 4.0 0.00 0.00 0.00 80 1012.1
20260831130337 77 149 0.0 2.0 0.00 0.00 0.00 81 1011.9
20260831125330 77 138 1.0 2.0 0.00 0.00 0.00 81 1012.1
20260831124337 76 279 0.0 1.0 0.00 0.00 0.00 82 1012.1
20260831123323 76 154 0.0 1.0 0.00 0.00 0.00 83 1012.1
20260831122332 76 154 0.0 2.0 0.00 0.00 0.00 84 1011.6
20260831121359 75 141 0.0 0.0 0.00 0.00 0.00 85 1011.4
20260831120409 75 150 0.0 0.0 0.00 0.00 0.00 86 1011.2
20260831115350 75 141 0.0 0.0 0.00 0.00 0.00 86 1010.9
20260831114342 75 141 0.0 0.0 0.00 0.00 0.00 86 1010.6
20260831113350 75 141 0.0 0.0 0.00 0.00 0.00 86 1010.7
20260831112341 75 141 0.0 0.0 0.00 0.00 0.00 87 1010.3
20260831111341 74 141 0.0 0.0 0.00 0.00 0.00 87 1010.3
20260831110348 74 141 0.0 0.0 0.00 0.00 0.00 86 1010.1
20260831105334 75 141 0.0 0.0 0.00 0.00 0.00 85 1010.2
20260831104339 75 141 0.0 0.0 0.00 0.00 0.00 85 1010.1
20260831103349 76 141 0.0 0.0 0.00 0.00 0.00 85 1010.0
20260831102331 76 141 0.0 0.0 0.00 0.00 0.00 85 1010.1
20260831101350 75 150 0.0 0.0 0.00 0.00 0.00 85 1010.0
20260831100338 75 150 0.0 0.0 0.00 0.00 0.00 86 1009.9
20260831095322 75 147 0.0 0.0 0.00 0.00 0.00 85 1009.8
20260831094340 75 147 0.0 0.0 0.00 0.00 0.00 85 1009.7
20260831093329 76 147 0.0 0.0 0.00 0.00 0.00 84 1009.4
20260831092322 76 147 0.0 0.0 0.00 0.00 0.00 84 1009.4
20260831091347 76 147 0.0 0.0 0.00 0.00 0.00 83 1009.3
20260831090329 76 147 0.0 0.0 0.00 0.00 0.00 83 1009.3
20260831085342 76 197 0.0 0.0 0.00 0.00 0.00 83 1009.2
20260831084356 76 240 0.0 0.0 0.00 0.00 0.00 83 1009.1
20260831083324 76 239 0.0 0.0 0.00 0.00 0.00 83 1009.0
20260831082340 77 239 0.0 0.0 0.00 0.00 0.00 83 1009.0
20260831081326 77 240 0.0 0.0 0.00 0.00 0.00 83 1008.9
20260831080331 77 240 0.0 0.0 0.00 0.00 0.00 82 1009.0
20260831075333 77 240 0.0 0.0 0.00 0.00 0.00 82 1008.8
20260831074354 78 240 0.0 0.0 0.00 0.00 0.00 82 1008.8
20260831073324 78 242 0.0 0.0 0.00 0.00 0.00 82 1009.0
20260831072338 78 246 0.0 0.0 0.00 0.00 0.00 82 1009.1
20260831071324 78 246 0.0 0.0 0.00 0.00 0.00 82 1009.1
20260831070334 78 246 0.0 0.0 0.00 0.00 0.00 82 1009.1
20260831065326 77 246 0.0 0.0 0.00 0.00 0.00 82 1009.2
20260831064330 78 246 0.0 0.0 0.00 0.00 0.00 82 1009.1
20260831063334 78 246 0.0 0.0 0.00 0.00 0.00 80 1009.2
20260831062347 79 246 0.0 0.0 0.00 0.00 0.00 80 1009.2
20260831061333 79 246 0.0 0.0 0.00 0.00 0.00 79 1009.0
20260831060325 80 246 0.0 0.0 0.00 0.00 0.00 78 1009.0
20260831055339 80 246 0.0 0.0 0.00 0.00 0.00 78 1009.0
20260831054343 81 246 0.0 0.0 0.00 0.00 0.00 78 1008.8
20260831053349 81 246 0.0 0.0 0.00 0.00 0.00 77 1008.7
20260831052329 82 244 0.0 0.0 0.00 0.00 0.00 75 1008.5
20260831051338 82 248 0.0 0.0 0.00 0.00 0.00 75 1008.4
20260831050343 81 175 0.0 0.0 0.00 0.00 0.00 76 1008.4
20260831045325 81 154 0.0 0.0 0.00 0.00 0.00 77 1008.5
20260831044352 81 154 0.0 0.0 0.00 0.00 0.00 77 1008.6
20260831043333 81 154 0.0 0.0 0.00 0.00 0.00 75 1008.4